Huntsville, AL

10:34 AM CDT on August 24, 2016 (GMT -0500)
Huntsville International

Weather History for KHSV - January, 2014

Change the Weather History Date:

Saturday, January 11, 2014

  Actual Average Record
Temperature  
Mean Temperature 51 °F 41 °F  
Max Temperature 62 °F 51 °F 75 °F (1949)
Min Temperature 39 °F 32 °F -2 °F (1962)
Degree Days  
Heating Degree Days 14 24  
Month to date heating degree days 340 264  
Since 1 July heating degree days 1607 1445  
Cooling Degree Days 0 0  
Month to date cooling degree days 0 0  
Year to date cooling degree days 0 0  
Moisture  
Dew Point 49 °F    
Average Humidity 68    
Maximum Humidity 100    
Minimum Humidity 36    
Precipitation  
Precipitation 2.11 in 0.17 in 2.42 in (2012)
Month to date precipitation 2.72 1.76  
Year to date precipitation 2.72 1.76  
Snow  
Snow 0.00 in - - ()
Month to date snowfall T  
Since 1 July snowfall T  
Snow Depth 0.00 in    
Sea Level Pressure  
Sea Level Pressure 29.78 in    
Wind  
Wind Speed 10 mph (WSW)    
Max Wind Speed 24 mph    
Max Gust Speed 36 mph    
Visibility 7 miles    
Events Rain , Thunderstorm    
T = Trace of Precipitation, MM = Missing Value Source: NWS Daily Summary

Daily Weather History Graph

Daily Weather History Graph

Search for Another Location

Airport or City:

Trip Planner

Search our weather history database for the weather conditions in past years. The results will help you decide how hot, cold, wet, or windy it might be!

Date:

Astronomy

Jan. 11, 2014 Rise Set
Actual Time 6:54 AM CST 4:55 PM CST
Civil Twilight 6:27 AM CST 5:23 PM CST
Nautical Twilight 5:55 AM CST 5:54 PM CST
Astronomical Twilight 5:25 AM CST 6:25 PM CST
Moon 1:38 PM CST (1/11) 3:01 AM CST (1/11)
Length of Visible Light 10h 56m
Length of Day
10h 01m
Waxing Gibbous, 83% of the Moon is Illuminated
Jan 11
Waxing Gibbous
Jan 15
Full
Jan 23
Last Quarter
Jan 30
New
Feb 6
First Quarter

Hourly Weather History & Observations

Time (CST) Temp. Windchill Dew Point Humidity Pressure Visibility Wind Dir Wind Speed Gust Speed Precip Events Conditions
12:53 AM 57.0 °F - 55.0 °F 93% 29.75 in 6.0 mi SSE 17.3 mph - 0.02 in   Overcast
1:36 AM 57.2 °F - 55.4 °F 94% 29.71 in 5.0 mi SSE 17.3 mph 24.2 mph 0.02 in Rain , Thunderstorm Light Thunderstorms and Rain
1:53 AM 57.9 °F - 55.9 °F 93% 29.70 in 10.0 mi South 17.3 mph 23.0 mph 0.03 in Thunderstorm Overcast
1:59 AM 57.2 °F - 55.4 °F 94% 29.76 in 10.0 mi West 13.8 mph 23.0 mph N/A Thunderstorm Overcast
2:04 AM 59.0 °F - 57.2 °F 94% 29.78 in 1.5 mi West 17.3 mph 27.6 mph 0.00 in Rain , Thunderstorm Light Thunderstorms and Rain
2:13 AM 57.2 °F - 55.4 °F 94% 29.75 in 0.8 mi WSW 20.7 mph 35.7 mph 0.47 in Rain , Thunderstorm Heavy Thunderstorms and Rain
2:16 AM 57.2 °F - 55.4 °F 94% 29.74 in 1.0 mi SW 19.6 mph 31.1 mph 0.51 in Rain , Thunderstorm Heavy Thunderstorms and Rain
2:26 AM 57.2 °F - 55.4 °F 94% 29.74 in 2.5 mi SSW 9.2 mph - 0.60 in Rain , Thunderstorm Heavy Rain
2:40 AM 57.2 °F - 55.4 °F 94% 29.71 in 3.0 mi SSW 9.2 mph - 0.70 in Rain , Thunderstorm Heavy Thunderstorms and Rain
2:48 AM 57.2 °F - 55.4 °F 94% 29.71 in 2.0 mi SSW 10.4 mph - 0.77 in Rain , Thunderstorm Heavy Thunderstorms and Rain
2:53 AM 57.9 °F - 55.9 °F 93% 29.71 in 1.8 mi SW 10.4 mph - 0.83 in Rain , Thunderstorm Heavy Thunderstorms and Rain
2:59 AM 57.2 °F - 55.4 °F 94% 29.72 in 1.5 mi SSW 12.7 mph - 0.15 in Rain , Thunderstorm Heavy Thunderstorms and Rain
3:10 AM 57.2 °F - 57.2 °F 100% 29.68 in 3.0 mi South 5.8 mph - 0.26 in Rain , Thunderstorm Thunderstorms and Rain
3:21 AM 57.2 °F - 57.2 °F 100% 29.66 in 10.0 mi SSE 3.5 mph - 0.26 in Rain Light Rain
3:32 AM 57.2 °F - 55.4 °F 94% 29.68 in 2.0 mi SW 6.9 mph - 0.33 in Rain Heavy Rain
3:35 AM 57.2 °F - 55.4 °F 94% 29.70 in 1.5 mi WSW 9.2 mph - 0.38 in Rain , Thunderstorm Heavy Rain
3:45 AM 57.2 °F - 57.2 °F 100% 29.70 in 0.8 mi WSW 8.1 mph - 0.77 in Rain , Thunderstorm Heavy Rain
3:50 AM 57.2 °F - 57.2 °F 100% 29.70 in 2.0 mi West 8.1 mph - 0.79 in Rain , Thunderstorm Heavy Rain
3:53 AM 57.9 °F - 57.0 °F 97% 29.70 in 3.0 mi West 9.2 mph - 0.81 in Rain , Thunderstorm Heavy Rain
4:06 AM 57.2 °F - 57.2 °F 100% 29.73 in 4.0 mi West 10.4 mph - 0.05 in Rain Heavy Rain
4:20 AM 57.2 °F - 57.2 °F 100% 29.71 in 3.0 mi West 6.9 mph - 0.12 in Rain Heavy Rain
4:29 AM 57.2 °F - 57.2 °F 100% 29.68 in 3.0 mi Calm Calm - 0.15 in Rain Rain
4:53 AM 57.9 °F - 55.9 °F 93% 29.73 in 2.0 mi WNW 13.8 mph 25.3 mph 0.26 in Rain Heavy Rain
5:03 AM 57.2 °F - 55.4 °F 94% 29.76 in 5.0 mi West 11.5 mph - 0.04 in Rain Rain
5:53 AM 55.9 °F - 54.0 °F 93% 29.73 in 8.0 mi South 4.6 mph - 0.16 in Rain Light Rain
6:53 AM 54.0 °F - 53.1 °F 97% 29.72 in 7.0 mi South 4.6 mph - 0.00 in   Overcast
7:45 AM 53.6 °F - 53.6 °F 100% 29.77 in 10.0 mi WSW 4.6 mph - N/A   Mostly Cloudy
7:53 AM 54.0 °F - 53.1 °F 97% 29.77 in 10.0 mi West 9.2 mph - N/A   Mostly Cloudy
8:02 AM 55.4 °F - 53.6 °F 94% 29.78 in 10.0 mi West 8.1 mph - N/A   Partly Cloudy
8:53 AM 55.9 °F - 52.0 °F 87% 29.80 in 10.0 mi West 6.9 mph - 0.01 in   Mostly Cloudy
9:53 AM 57.0 °F - 46.0 °F 67% 29.82 in 10.0 mi West 11.5 mph 18.4 mph 0.01 in   Clear
10:53 AM 57.9 °F - 37.9 °F 47% 29.80 in 10.0 mi West 10.4 mph 19.6 mph N/A   Clear
11:53 AM 59.0 °F - 35.1 °F 41% 29.76 in 10.0 mi West 11.5 mph - N/A   Clear
12:53 PM 61.0 °F - 34.0 °F 36% 29.74 in 10.0 mi WSW 13.8 mph 19.6 mph N/A   Mostly Cloudy
1:53 PM 61.0 °F - 35.1 °F 38% 29.73 in 10.0 mi West 15.0 mph 23.0 mph N/A   Mostly Cloudy
2:53 PM 59.0 °F - 35.1 °F 41% 29.75 in 10.0 mi West 15.0 mph 25.3 mph N/A   Scattered Clouds
3:53 PM 55.9 °F - 39.0 °F 53% 29.79 in 10.0 mi WNW 16.1 mph 23.0 mph N/A   Mostly Cloudy
4:53 PM 53.1 °F - 37.9 °F 57% 29.83 in 10.0 mi WNW 16.1 mph 24.2 mph N/A   Scattered Clouds
5:53 PM 50.0 °F - 37.9 °F 63% 29.87 in 10.0 mi WNW 8.1 mph - N/A   Partly Cloudy
6:53 PM 48.0 °F - 36.0 °F 63% 29.91 in 10.0 mi WNW 9.2 mph - N/A   Clear
7:53 PM 45.0 °F 41.2 °F 36.0 °F 71% 29.95 in 10.0 mi WNW 6.9 mph - N/A   Clear
8:53 PM 42.1 °F 39.2 °F 36.0 °F 79% 29.97 in 10.0 mi West 4.6 mph - N/A   Clear
9:53 PM 39.0 °F 34.8 °F 34.0 °F 82% 30.00 in 10.0 mi West 5.8 mph - N/A   Clear
10:53 PM 39.0 °F 36.8 °F 35.1 °F 86% 30.01 in 10.0 mi West 3.5 mph - N/A   Clear
11:53 PM 39.9 °F 37.8 °F 36.0 °F 86% 30.01 in 10.0 mi West 3.5 mph - N/A   Clear